Flag for U.S.A. Weather past 2 weeks in Fargo, North Dakota, U.S.A.

Now
31 °F

Light snow. Mostly cloudy.


Feels Like: 19 °F
Forecast: 30 / 40 °F
Wind: 20 mph from Northeast

Location: Hector International Airport


UV Index: 0 (Low)

Visibility: 7 mi


Pressure: 30.09 "Hg

Humidity: 69%

Dew point: 22 °F

Location of FargoLocation

Historic Weather in Fargo

°F

Fargo temperature yesterday

Maximum temperature yesterday: 34 °F (at 4:53 PM)
Minimum temperature yesterday: 13 °F (at 5:53 AM)
Average temperature yesterday: 24 °F

Past Weeks' High & Low Weather Summary

 TemperatureHumidityPressure
High78 °F (Apr 9, 3:53 PM)97% (Apr 7, 4:04 AM)30.27 "Hg (Apr 7, 4:04 AM)
Low9 °F (Apr 2, 6:53 AM)26% (Apr 9, 4:53 PM)29.39 "Hg (Apr 9, 5:53 PM)
Average37 °F70%29.97 "Hg
* Reported Apr 1 11:53 AM — Apr 16 11:53 AM, Fargo, Weather by CustomWeather, © 2014

Note: Actual official high and low records may vary slightly from our data, if they occured in-between our weather recording intervals... More about our weather records

Advertising

Historic Weather Conditions — Data for Previous 24 hours

 ConditionsComfort  
Time TempWeatherWind HumidityBarometerVisibility
11:53 AM
Apr 16
31 °FLight snow. Mostly cloudy.20 mph69%30.09 "Hg7 mi
10:53 AM30 °FOvercast.18 mph72%30.08 "Hg9 mi
9:53 AM29 °FMostly cloudy.15 mph75%30.06 "Hg10 mi
8:53 AM28 °FMore clouds than sun.20 mph78%30.05 "Hg10 mi
7:53 AM28 °FOvercast.14 mph78%30.03 "Hg10 mi
6:53 AM28 °FLight snow. Overcast.15 mph81%30.01 "Hg2 mi
5:53 AM28 °FLight snow. Ice fog.15 mph85%30.00 "Hg1 mi
4:59 AM28 °FLight snow. Ice fog.14 mph85%29.96 "Hg3 mi
4:03 AM28 °FLight snow. Ice fog.13 mph85%29.95 "Hg1 mi
3:53 AM28 °FLight snow. Ice fog.12 mph85%29.98 "Hg1 mi
2:53 AM29 °FLight snow. Overcast.15 mph82%29.99 "Hg2 mi
2:02 AM30 °FLight snow. Overcast.16 mph72%29.96 "Hg3 mi
12:53 AM32 °FOvercast.14 mph56%30.01 "Hg10 mi
11:53 PM
Apr 15
33 °FOvercast.9 mph45%30.00 "Hg10 mi
10:53 PM33 °FMostly cloudy.12 mph43%30.01 "Hg10 mi
9:53 PM33 °FOvercast.8 mph43%30.01 "Hg10 mi
8:53 PM33 °FOvercast.13 mph40%30.01 "Hg10 mi
7:53 PM33 °FOvercast.12 mph38%30.03 "Hg10 mi
5:53 PM33 °FOvercast.9 mph40%30.02 "Hg10 mi
4:53 PM34 °FPartly sunny.15 mph42%30.03 "Hg10 mi
3:53 PM32 °FPartly sunny.10 mph38%30.06 "Hg10 mi
2:53 PM31 °FPassing clouds.10 mph41%30.08 "Hg10 mi
1:53 PM30 °FPassing clouds.7 mph45%30.10 "Hg10 mi
Weather by CustomWeather, © 2014

See weather overview